THY7GC LTFM-LHBP

Flight info

Callsign THY7GC
Flight time 1h 33m
Altitude 38000
Route TUDBU1E/36 TUDBU Q26 ETUBA DCT DEGET DCT KEZAL
Aircraft A21N/M-SDE2E3FGHIRWXY/LB1

Departure

Time 2026-05-05 18:29
Airport İstanbul Airport (LTFM)

Arrival

Time 2026-05-05 20:02
Airport Budapest Liszt Ferenc International Airport (LHBP)
Time Latitude Longitude Altitude Speed Heading
2026-05-05 17:48 41.26345 28.74937 333 ft 0 kts 287°
2026-05-05 18:21 41.26340 28.74962 336 ft 3 kts 284°
2026-05-05 18:21 41.26334 28.74987 334 ft 3 kts 280°
2026-05-05 18:21 41.26334 28.75010 336 ft 3 kts 242°
2026-05-05 18:22 41.26346 28.75028 334 ft 3 kts 205°
2026-05-05 18:22 41.26362 28.75036 335 ft 2 kts 197°
2026-05-05 18:22 41.26381 28.75043 336 ft 3 kts 197°
2026-05-05 18:22 41.26385 28.75045 334 ft 0 kts 197°
2026-05-05 18:26 41.26371 28.75039 333 ft 6 kts 199°
2026-05-05 18:26 41.26302 28.75013 335 ft 13 kts 186°
2026-05-05 18:26 41.26248 28.75063 335 ft 8 kts 97°
2026-05-05 18:26 41.26245 28.75222 337 ft 24 kts 89°
2026-05-05 18:27 41.26248 28.75444 337 ft 24 kts 88°
2026-05-05 18:27 41.26260 28.75645 333 ft 11 kts 61°
2026-05-05 18:27 41.26302 28.75669 333 ft 6 kts
2026-05-05 18:27 41.26341 28.75668 332 ft 6 kts 355°
2026-05-05 18:28 41.27231 28.75648 334 ft 128 kts 359°
2026-05-05 18:28 41.28272 28.75623 616 ft 154 kts 359°
2026-05-05 18:28 41.29482 28.75652 727 ft 204 kts 11°
2026-05-05 18:29 41.30927 28.76444 989 ft 239 kts 29°
2026-05-05 18:29 41.32353 28.77597 2020 ft 235 kts 31°
2026-05-05 18:29 41.33746 28.78763 3094 ft 239 kts 30°
2026-05-05 18:29 41.35154 28.79931 4104 ft 242 kts 30°
2026-05-05 18:30 41.36592 28.81112 5164 ft 243 kts 29°
2026-05-05 18:30 41.38070 28.82226 6136 ft 246 kts 18°
2026-05-05 18:30 41.39761 28.82502 7012 ft 248 kts 358°
2026-05-05 18:30 41.41494 28.82306 7911 ft 251 kts 354°
2026-05-05 18:31 41.43234 28.82042 8895 ft 253 kts 354°
2026-05-05 18:31 41.44995 28.81785 9615 ft 257 kts 354°
2026-05-05 18:31 41.46795 28.81539 9951 ft 260 kts 355°
2026-05-05 18:31 41.48601 28.81303 10009 ft 266 kts 355°
2026-05-05 18:32 41.50566 28.81055 10009 ft 298 kts 355°
2026-05-05 18:32 41.52652 28.80794 10002 ft 309 kts 355°
2026-05-05 18:32 41.54800 28.80527 10003 ft 310 kts 355°
2026-05-05 18:32 41.56946 28.80252 9996 ft 305 kts 354°
2026-05-05 18:33 41.58945 28.79667 9981 ft 284 kts 342°
2026-05-05 18:33 41.60641 28.78496 9982 ft 270 kts 327°
2026-05-05 18:33 41.61997 28.76781 10001 ft 272 kts 312°
2026-05-05 18:33 41.63021 28.74477 10114 ft 305 kts 299°
2026-05-05 18:34 41.63864 28.71762 10581 ft 324 kts 295°
2026-05-05 18:34 41.64683 28.68915 11288 ft 332 kts 295°
2026-05-05 18:34 41.65516 28.66010 12080 ft 337 kts 295°
2026-05-05 18:34 41.66360 28.63065 12707 ft 341 kts 294°
2026-05-05 18:35 41.66952 28.59949 12965 ft 350 kts 281°
2026-05-05 18:35 41.67104 28.56686 13064 ft 354 kts 276°
2026-05-05 18:35 41.67137 28.53375 13076 ft 355 kts 275°
2026-05-05 18:35 41.67154 28.50119 13081 ft 355 kts 275°
2026-05-05 18:36 41.67318 28.46793 13080 ft 351 kts 284°
2026-05-05 18:36 41.67959 28.43725 13080 ft 345 kts 295°
2026-05-05 18:36 41.68872 28.40764 13081 ft 344 kts 297°
2026-05-05 18:36 41.69837 28.37834 13082 ft 344 kts 298°
2026-05-05 18:37 41.70808 28.34899 13068 ft 345 kts 298°
2026-05-05 18:37 41.71774 28.31966 13073 ft 345 kts 298°
2026-05-05 18:37 41.72738 28.29027 13075 ft 345 kts 298°
2026-05-05 18:37 41.73699 28.26087 13075 ft 345 kts 298°
2026-05-05 18:38 41.74660 28.23139 13076 ft 345 kts 297°
2026-05-05 18:38 41.75617 28.20199 13079 ft 345 kts 297°
2026-05-05 18:38 41.76264 28.18210 13077 ft 345 kts 297°
2026-05-05 18:38 41.77537 28.14291 13279 ft 348 kts 297°
2026-05-05 18:39 41.78506 28.11310 14049 ft 351 kts 298°
2026-05-05 18:39 41.79599 28.08414 14841 ft 350 kts 305°
2026-05-05 18:39 41.80974 28.05703 15610 ft 351 kts 310°
2026-05-05 18:39 41.82449 28.03057 16307 ft 356 kts 310°
2026-05-05 18:40 41.83957 28.00392 17019 ft 361 kts 310°
2026-05-05 18:40 41.85481 27.97694 17736 ft 365 kts 310°
2026-05-05 18:40 41.87018 27.94965 18421 ft 369 kts 310°
2026-05-05 18:40 41.88572 27.92198 19002 ft 373 kts 309°
2026-05-05 18:41 41.90139 27.89403 19579 ft 377 kts 309°
2026-05-05 18:41 41.91722 27.86574 20174 ft 381 kts 309°
2026-05-05 18:41 41.93319 27.83716 20765 ft 384 kts 309°
2026-05-05 18:41 41.94920 27.80847 21440 ft 385 kts 309°
2026-05-05 18:42 41.96574 27.78000 22022 ft 387 kts 313°
2026-05-05 18:42 41.98373 27.75287 22547 ft 391 kts 315°
2026-05-05 18:42 42.00263 27.72628 23069 ft 394 kts 316°
2026-05-05 18:42 42.02199 27.69995 23601 ft 398 kts 317°
2026-05-05 18:43 42.04164 27.67355 24031 ft 401 kts 317°
2026-05-05 18:43 42.06148 27.64687 24424 ft 405 kts 317°
2026-05-05 18:43 42.08144 27.61987 24815 ft 408 kts 316°
2026-05-05 18:43 42.10108 27.59312 25309 ft 408 kts 316°
2026-05-05 18:44 42.12093 27.56594 25756 ft 410 kts 316°
2026-05-05 18:44 42.14105 27.53830 26093 ft 414 kts 316°
2026-05-05 18:44 42.16170 27.50989 26373 ft 420 kts 316°
2026-05-05 18:44 42.18218 27.48166 26720 ft 423 kts 316°
2026-05-05 18:45 42.20280 27.45320 27097 ft 425 kts 316°
2026-05-05 18:45 42.22356 27.42451 27456 ft 428 kts 315°
2026-05-05 18:45 42.24441 27.39569 27787 ft 431 kts 315°
2026-05-05 18:45 42.26511 27.36703 28243 ft 431 kts 315°
2026-05-05 18:46 42.28606 27.33802 28605 ft 433 kts 315°
2026-05-05 18:46 42.30719 27.30872 28897 ft 436 kts 315°
2026-05-05 18:46 42.32843 27.27924 29196 ft 439 kts 315°
2026-05-05 18:46 42.34971 27.24968 29495 ft 442 kts 315°
2026-05-05 18:47 42.37131 27.21966 29798 ft 444 kts 315°
2026-05-05 18:47 42.39283 27.18969 30178 ft 444 kts 315°
2026-05-05 18:47 42.41441 27.15961 30575 ft 442 kts 316°
2026-05-05 18:47 42.43553 27.13011 31368 ft 429 kts 316°
2026-05-05 18:48 42.45622 27.10120 31782 ft 428 kts 315°
2026-05-05 18:48 42.47710 27.07205 31872 ft 434 kts 315°
2026-05-05 18:48 42.49809 27.04269 32127 ft 434 kts 315°
2026-05-05 18:48 42.51905 27.01334 32478 ft 433 kts 315°
2026-05-05 18:49 42.53993 26.98407 32836 ft 431 kts 315°
2026-05-05 18:49 42.56072 26.95488 33164 ft 430 kts 315°
2026-05-05 18:49 42.58151 26.92566 33583 ft 426 kts 316°
2026-05-05 18:49 42.60187 26.89700 34124 ft 419 kts 316°
2026-05-05 18:50 42.62204 26.86859 34380 ft 419 kts 316°
2026-05-05 18:50 42.64233 26.84001 34555 ft 419 kts 316°
2026-05-05 18:50 42.66230 26.81186 34733 ft 420 kts 316°
2026-05-05 18:50 42.68256 26.78326 34928 ft 420 kts 316°
2026-05-05 18:51 42.70262 26.75490 35140 ft 419 kts 315°
2026-05-05 18:51 42.72299 26.72609 35351 ft 419 kts 315°
2026-05-05 18:51 42.74314 26.69755 35572 ft 418 kts 316°
2026-05-05 18:51 42.76325 26.66904 35771 ft 417 kts 315°
2026-05-05 18:52 42.79656 26.62175 36015 ft 418 kts 315°
2026-05-05 18:52 42.81676 26.59326 36197 ft 418 kts 316°
2026-05-05 18:52 42.83744 26.56519 36359 ft 417 kts 317°
2026-05-05 18:53 42.85841 26.53742 36531 ft 417 kts 317°
2026-05-05 18:53 42.87934 26.50998 36695 ft 417 kts 317°
2026-05-05 18:53 42.90017 26.48273 36832 ft 417 kts 317°
2026-05-05 18:53 42.92107 26.45531 36981 ft 417 kts 317°
2026-05-05 18:54 42.94199 26.42777 37123 ft 417 kts 317°
2026-05-05 18:54 42.96284 26.40021 37259 ft 417 kts 317°
2026-05-05 18:54 42.98369 26.37259 37380 ft 417 kts 317°
2026-05-05 18:54 43.00447 26.34500 37514 ft 417 kts 317°
2026-05-05 18:55 43.02536 26.31722 37623 ft 418 kts 317°
2026-05-05 18:55 43.04619 26.28949 37730 ft 418 kts 317°
2026-05-05 18:55 43.08765 26.23422 37856 ft 421 kts 317°
2026-05-05 18:56 43.12969 26.17809 38012 ft 423 kts 317°
2026-05-05 18:56 43.17185 26.12167 38015 ft 424 kts 317°
2026-05-05 18:57 43.21407 26.06504 38015 ft 423 kts 317°
2026-05-05 18:57 43.25617 26.00848 38012 ft 423 kts 317°
2026-05-05 18:58 43.29803 25.95212 38015 ft 421 kts 317°
2026-05-05 18:58 43.33977 25.89580 38026 ft 420 kts 317°
2026-05-05 18:59 43.38139 25.83954 38011 ft 420 kts 317°
2026-05-05 18:59 43.42307 25.78308 38010 ft 420 kts 317°
2026-05-05 19:00 43.46480 25.72645 38010 ft 420 kts 317°
2026-05-05 19:00 43.50636 25.66992 38007 ft 420 kts 317°
2026-05-05 19:01 43.54788 25.61332 37999 ft 420 kts 317°
2026-05-05 19:01 43.58943 25.55657 37980 ft 420 kts 317°
2026-05-05 19:02 43.63077 25.50001 37998 ft 422 kts 316°
2026-05-05 19:02 43.67241 25.44290 37998 ft 422 kts 317°
2026-05-05 19:03 43.71403 25.38570 37999 ft 422 kts 317°
2026-05-05 19:03 43.75560 25.32846 37995 ft 422 kts 316°
2026-05-05 19:04 43.79720 25.27105 37996 ft 422 kts 316°
2026-05-05 19:04 43.83873 25.21362 37997 ft 422 kts 316°
2026-05-05 19:05 43.88019 25.15618 37997 ft 422 kts 316°
2026-05-05 19:05 43.92132 25.09905 37994 ft 422 kts 316°
2026-05-05 19:06 43.96279 25.04136 37995 ft 421 kts 316°
2026-05-05 19:06 44.00398 24.98392 37993 ft 421 kts 316°
2026-05-05 19:07 44.04527 24.92621 37993 ft 421 kts 316°
2026-05-05 19:07 44.08658 24.86838 37993 ft 421 kts 316°
2026-05-05 19:08 44.12772 24.81064 37992 ft 420 kts 316°
2026-05-05 19:08 44.16888 24.75276 37990 ft 420 kts 316°
2026-05-05 19:09 44.20981 24.69510 37990 ft 419 kts 316°
2026-05-05 19:09 44.25084 24.63715 37991 ft 420 kts 316°
2026-05-05 19:10 44.29155 24.57955 37986 ft 421 kts 315°
2026-05-05 19:10 44.33262 24.52131 37990 ft 420 kts 315°
2026-05-05 19:11 44.37368 24.46296 37991 ft 420 kts 315°
2026-05-05 19:11 44.41460 24.40468 37990 ft 420 kts 315°
2026-05-05 19:12 44.45556 24.34622 37988 ft 420 kts 315°
2026-05-05 19:12 44.49640 24.28783 37988 ft 419 kts 315°
2026-05-05 19:13 44.53712 24.22947 37991 ft 418 kts 315°
2026-05-05 19:13 44.57770 24.17119 37992 ft 420 kts 315°
2026-05-05 19:14 44.61840 24.11261 37991 ft 420 kts 315°
2026-05-05 19:14 44.65889 24.05421 37992 ft 420 kts 315°
2026-05-05 19:15 44.69955 23.99543 37993 ft 419 kts 315°
2026-05-05 19:15 44.74013 23.93664 37992 ft 419 kts 315°
2026-05-05 19:16 44.78071 23.87774 37994 ft 419 kts 315°
2026-05-05 19:16 44.82087 23.81932 37985 ft 419 kts 315°
2026-05-05 19:17 44.86134 23.76032 37998 ft 419 kts 315°
2026-05-05 19:17 44.90173 23.70130 37998 ft 419 kts 315°
2026-05-05 19:18 44.94223 23.64200 38002 ft 419 kts 315°
2026-05-05 19:18 44.98247 23.58295 38005 ft 419 kts 315°
2026-05-05 19:19 45.02293 23.52345 38009 ft 419 kts 314°
2026-05-05 19:19 45.06326 23.46402 38010 ft 419 kts 314°
2026-05-05 19:20 45.10327 23.40491 38017 ft 419 kts 314°
2026-05-05 19:20 45.14356 23.34527 38017 ft 418 kts 314°
2026-05-05 19:21 45.18382 23.28556 38018 ft 419 kts 314°
2026-05-05 19:21 45.22412 23.22564 38024 ft 419 kts 314°
2026-05-05 19:22 45.26436 23.16568 38028 ft 419 kts 314°
2026-05-05 19:22 45.30439 23.10591 38029 ft 419 kts 314°
2026-05-05 19:23 45.34455 23.04580 38030 ft 419 kts 314°
2026-05-05 19:23 45.38469 22.98562 38034 ft 419 kts 314°
2026-05-05 19:24 45.42476 22.92539 38024 ft 419 kts 314°
2026-05-05 19:24 45.46508 22.86464 38031 ft 419 kts 314°
2026-05-05 19:25 45.50506 22.80427 38020 ft 419 kts 314°
2026-05-05 19:25 45.54484 22.74409 38020 ft 419 kts 314°
2026-05-05 19:26 45.58487 22.68338 38011 ft 420 kts 313°
2026-05-05 19:26 45.62478 22.62272 38005 ft 420 kts 313°
2026-05-05 19:27 45.66477 22.56179 37998 ft 420 kts 313°
2026-05-05 19:27 45.70449 22.50116 37998 ft 420 kts 313°
2026-05-05 19:28 45.74443 22.44007 37986 ft 421 kts 313°
2026-05-05 19:28 45.78446 22.37867 37981 ft 421 kts 313°
2026-05-05 19:29 45.82426 22.31748 37976 ft 422 kts 313°
2026-05-05 19:29 45.86441 22.25562 37971 ft 422 kts 313°
2026-05-05 19:30 45.90439 22.19391 37972 ft 422 kts 313°
2026-05-05 19:30 45.94434 22.13209 37962 ft 422 kts 312°
2026-05-05 19:31 45.98418 22.07029 37962 ft 422 kts 312°
2026-05-05 19:31 46.02379 22.00870 37961 ft 422 kts 312°
2026-05-05 19:32 46.06374 21.94647 37958 ft 422 kts 312°
2026-05-05 19:32 46.10356 21.88427 37955 ft 423 kts 312°
2026-05-05 19:33 46.14348 21.82178 37951 ft 423 kts 312°
2026-05-05 19:33 46.18338 21.75918 37948 ft 423 kts 312°
2026-05-05 19:34 46.22319 21.69659 37942 ft 423 kts 312°
2026-05-05 19:35 46.28287 21.60247 37946 ft 424 kts 311°
2026-05-05 19:35 46.32265 21.53954 37937 ft 424 kts 311°
2026-05-05 19:36 46.36239 21.47654 37934 ft 424 kts 311°
2026-05-05 19:36 46.40203 21.41355 37939 ft 424 kts 311°
2026-05-05 19:37 46.43502 21.36102 37930 ft 424 kts 311°
2026-05-05 19:37 46.47475 21.29763 37927 ft 424 kts 311°
2026-05-05 19:38 46.51470 21.23452 37926 ft 424 kts 312°
2026-05-05 19:38 46.55515 21.17212 37925 ft 424 kts 312°
2026-05-05 19:39 46.59567 21.10973 37919 ft 424 kts 312°
2026-05-05 19:39 46.63615 21.04712 37919 ft 424 kts 312°
2026-05-05 19:40 46.67624 20.98486 37919 ft 424 kts 312°
2026-05-05 19:40 46.71654 20.92207 37919 ft 424 kts 312°
2026-05-05 19:41 46.75688 20.85907 37911 ft 425 kts 312°
2026-05-05 19:41 46.79719 20.79599 37914 ft 425 kts 312°
2026-05-05 19:42 46.83749 20.73278 37911 ft 425 kts 311°
2026-05-05 19:42 46.87763 20.66967 37551 ft 421 kts 311°
2026-05-05 19:42 46.89751 20.63835 36797 ft 422 kts 311°
2026-05-05 19:43 46.91757 20.60671 35899 ft 427 kts 311°
2026-05-05 19:43 46.93781 20.57474 35082 ft 430 kts 312°
2026-05-05 19:43 46.95821 20.54248 34326 ft 431 kts 312°
2026-05-05 19:43 46.97859 20.51023 33552 ft 432 kts 312°
2026-05-05 19:44 46.99897 20.47793 32720 ft 433 kts 312°
2026-05-05 19:44 47.01945 20.44545 31884 ft 433 kts 312°
2026-05-05 19:44 47.03899 20.41173 31039 ft 434 kts 306°
2026-05-05 19:44 47.05539 20.37454 30193 ft 434 kts 298°
2026-05-05 19:45 47.06762 20.33425 29204 ft 436 kts 289°
2026-05-05 19:45 47.07499 20.29165 28084 ft 440 kts 279°
2026-05-05 19:45 47.07817 20.24698 26947 ft 445 kts 275°
2026-05-05 19:45 47.08023 20.20120 25787 ft 449 kts 274°
2026-05-05 19:46 47.08208 20.15526 24650 ft 453 kts 273°
2026-05-05 19:46 47.08394 20.10884 23558 ft 457 kts 273°
2026-05-05 19:46 47.08581 20.06244 22477 ft 455 kts 273°
2026-05-05 19:46 47.08767 20.01611 21489 ft 452 kts 272°
2026-05-05 19:47 47.08950 19.97038 20576 ft 448 kts 272°
2026-05-05 19:47 47.09131 19.92509 19686 ft 443 kts 272°
2026-05-05 19:47 47.09310 19.88010 18810 ft 439 kts 272°
2026-05-05 19:47 47.09487 19.83536 17900 ft 435 kts 272°
2026-05-05 19:48 47.09660 19.79127 16976 ft 430 kts 271°
2026-05-05 19:48 47.09830 19.74764 16089 ft 425 kts 271°
2026-05-05 19:48 47.09996 19.70475 15263 ft 419 kts 270°
2026-05-05 19:48 47.10159 19.66246 14508 ft 412 kts 270°
2026-05-05 19:49 47.10291 19.62075 13741 ft 406 kts 273°
2026-05-05 19:49 47.11126 19.58137 13146 ft 405 kts 294°
2026-05-05 19:49 47.12788 19.54881 12939 ft 391 kts 309°
2026-05-05 19:49 47.14623 19.52090 12911 ft 368 kts 310°
2026-05-05 19:50 47.16365 19.49477 12796 ft 349 kts 309°
2026-05-05 19:50 47.17986 19.46998 12580 ft 336 kts 309°
2026-05-05 19:50 47.19566 19.44537 12233 ft 327 kts 308°
2026-05-05 19:50 47.21107 19.42104 11791 ft 323 kts 308°
2026-05-05 19:51 47.22622 19.39692 11322 ft 319 kts 307°
2026-05-05 19:51 47.24120 19.37298 10861 ft 317 kts 307°
2026-05-05 19:51 47.25586 19.34948 10431 ft 314 kts 307°
2026-05-05 19:51 47.27052 19.32597 10054 ft 311 kts 307°
2026-05-05 19:52 47.28514 19.30249 9941 ft 311 kts 307°
2026-05-05 19:52 47.29970 19.27905 9893 ft 306 kts 307°
2026-05-05 19:52 47.31394 19.25619 9979 ft 298 kts 307°
2026-05-05 19:52 47.32792 19.23367 9993 ft 297 kts 307°
2026-05-05 19:53 47.34185 19.21115 9993 ft 297 kts 307°
2026-05-05 19:53 47.35580 19.18860 9993 ft 297 kts 307°
2026-05-05 19:53 47.36973 19.16609 9993 ft 297 kts 307°
2026-05-05 19:53 47.38368 19.14353 9993 ft 297 kts 307°
2026-05-05 19:54 47.39760 19.12100 9993 ft 297 kts 307°
2026-05-05 19:54 47.41156 19.09839 9991 ft 297 kts 307°
2026-05-05 19:54 47.42551 19.07578 9984 ft 297 kts 307°
2026-05-05 19:54 47.43942 19.05322 9595 ft 297 kts 306°
2026-05-05 19:55 47.45339 19.03050 9030 ft 299 kts 306°
2026-05-05 19:55 47.46709 19.00828 8732 ft 291 kts 306°
2026-05-05 19:55 47.48046 18.98664 8534 ft 280 kts 306°
2026-05-05 19:55 47.49341 18.96559 8268 ft 274 kts 306°
2026-05-05 19:56 47.50611 18.94490 7951 ft 269 kts 306°
2026-05-05 19:56 47.51873 18.92476 7576 ft 269 kts 311°
2026-05-05 19:56 47.53472 18.90969 7144 ft 280 kts 340°
2026-05-05 19:56 47.55424 18.90864 6681 ft 286 kts 15°
2026-05-05 19:57 47.57147 18.92255 6258 ft 282 kts 42°
2026-05-05 19:57 47.58091 18.93556 5987 ft 279 kts 52°
2026-05-05 19:57 47.59106 18.96915 5346 ft 264 kts 95°
2026-05-05 19:57 47.58706 18.99438 4962 ft 244 kts 128°
2026-05-05 19:58 47.57729 19.01373 4814 ft 228 kts 137°
2026-05-05 19:58 47.56655 19.03017 4594 ft 219 kts 142°
2026-05-05 19:58 47.55633 19.04617 4427 ft 207 kts 139°
2026-05-05 19:58 47.54704 19.06150 4218 ft 194 kts 140°
2026-05-05 19:59 47.53809 19.07616 3757 ft 192 kts 140°
2026-05-05 19:59 47.52900 19.09085 3258 ft 194 kts 141°
2026-05-05 19:59 47.51975 19.10573 2996 ft 198 kts 141°
2026-05-05 19:59 47.51048 19.12067 2504 ft 202 kts 139°
2026-05-05 20:00 47.50078 19.13643 2006 ft 206 kts 138°
2026-05-05 20:00 47.49108 19.15221 1746 ft 208 kts 138°
2026-05-05 20:00 47.48142 19.16782 1473 ft 209 kts 137°
2026-05-05 20:00 47.47154 19.18382 1192 ft 206 kts 135°
2026-05-05 20:01 47.46244 19.19859 920 ft 186 kts 134°
2026-05-05 20:01 47.45415 19.21202 677 ft 167 kts 135°
2026-05-05 20:01 47.44670 19.22419 462 ft 153 kts 135°
2026-05-05 20:01 47.44061 19.23385 458 ft 93 kts 132°
2026-05-05 20:02 47.43811 19.23809 458 ft 37 kts 130°
2026-05-05 20:02 47.43712 19.24037 456 ft 22 kts 109°
2026-05-05 20:02 47.43679 19.24222 459 ft 16 kts 101°
2026-05-05 20:02 47.43648 19.24368 459 ft 15 kts 108°
2026-05-05 20:03 47.43642 19.24397 460 ft 0 kts 108°
2026-05-05 20:03 47.43641 19.24398 460 ft 1 kts 109°
2026-05-05 20:04 47.43635 19.24425 460 ft 3 kts 109°
2026-05-05 20:04 47.43626 19.24457 460 ft 3 kts 115°
2026-05-05 20:04 47.43623 19.24466 460 ft 3 kts 118°
2026-05-05 20:04 47.43597 19.24526 458 ft 14 kts 125°
2026-05-05 20:05 47.43497 19.24703 460 ft 16 kts 138°